Location: Unspecified
(50.7693°N, 0.0000°E)
Time: 04:07:26
(UTC+00:00)

deb Explorer IX - Pass Details

Date: 03 October 2020
Orbit: 537 x 1106 km, 38.8° (Epoch: 19 October)

Event Time Altitude Azimuth Distance (km) Brightness Sun altitude
Rises 18:26:58 0° 251° (WSW) 3,089 ? -9.4°
Reaches altitude 10° 18:30:14 10° 231° (SW) 2,058 ? -9.9°
Maximum altitude 18:33:13 17° 192° (SSW) 1,573 ? -10.4°
Drops below altitude 10° 18:35:59 10° 152° (SSE) 1,893 ? -10.8°
Enters shadow 18:37:01 - 142° (SE) 2,165 ? -11.0°
